This is the latest recevied weather packets stored in our database for station/object 7L2IWN-13. If no packets are shown the sender has not sent any weather packets the latest 10 day(s).
| Time | Temp. | Humidity | Pressure | Rain* | Wind** | Luminosity | Snow |
|---|---|---|---|---|---|---|---|
| 1787734082 | 31.11° C | 78% | 1007.8 hPa | 0 mm | - | - | - |
| 1787733363 | 31.67° C | 77% | 1008.1 hPa | 0 mm | - | - | - |
| 1787732643 | 31.67° C | 76% | 1008.2 hPa | 0 mm | - | - | - |
| 1787731923 | 31.67° C | 78% | 1007.8 hPa | 0 mm | - | - | - |
| 1787731204 | 32.22° C | 75% | 1008 hPa | 0 mm | - | - | - |
| 1787730483 | 32.78° C | 74% | 1007.9 hPa | 0 mm | - | - | - |
| 1787729762 | 32.78° C | 74% | 1007.7 hPa | 0 mm | - | - | - |
| 1787729045 | 33.33° C | 72% | 1007.7 hPa | 0 mm | - | - | - |
| 1787728322 | 33.33° C | 71% | 1007.9 hPa | 0 mm | - | - | - |
| 1787727602 | 33.33° C | 71% | 1007.8 hPa | 0 mm | - | - | - |
| 1787726884 | 33.33° C | 71% | 1007.9 hPa | 0 mm | - | - | - |
| 1787726163 | 33.89° C | 71% | 1007.8 hPa | 0 mm | - | - | - |
| 1787724722 | 33.89° C | 70% | 1007.9 hPa | 0 mm | - | - | - |
| 1787724002 | 32.78° C | 75% | 1008.1 hPa | 0 mm | - | - | - |
| 1787723283 | 32.78° C | 74% | 1008.3 hPa | 0 mm | - | - | - |
| 1787722563 | 34.44° C | 70% | 1008.4 hPa | 0 mm | - | - | - |
| 1787721842 | 33.33° C | 71% | 1008.8 hPa | 0 mm | - | - | - |
| 1787721124 | 33.89° C | 73% | 1008.8 hPa | 0 mm | - | - | - |
| 1787720402 | 33.89° C | 75% | 1008.9 hPa | 0 mm | - | - | - |
| 1787719683 | 33.33° C | 74% | 1008.5 hPa | 0 mm | - | - | - |
| 1787718962 | 33.33° C | 73% | 1008.5 hPa | 0 mm | - | - | - |
| 1787718243 | 32.78° C | 73% | 1008.6 hPa | 0 mm | - | - | - |
| 1787717525 | 32.22° C | 75% | 1008.8 hPa | 0 mm | - | - | - |
* Rain latest hour (hover to see other rain measurements)
** Current wind speed in m/s (hover to see current wind gust speed)